Find Local Weather

World > North America > United States > Illinois

Hawthorne School, Illinois Regional Weather

Lat: 41.88N, Lon: 88.07W
Wx Zone: ILZ013
Warning FLW WEATHER ALERT - (More Info. Click Here) Warning
Feedback
Expires:201809191800;;889853
ASUS43 KLOT 191709
RWRIL 

ILLINOIS REGIONAL WEATHER ROUNDUP
NATIONAL WEATHER SERVICE CHICAGO/ROMEOVILLE IL
1200 PM CDT WED SEP 19 2018

NOTE: "FAIR" INDICATES FEW OR NO CLOUDS BELOW 12,000 FEET WITH NO
SIGNIFICANT WEATHER AND/OR OBSTRUCTIONS TO VISIBILITY.

* THESE STATIONS ARE NOT UNDER NWS QUALITY CONTROL. THEY ALSO MAY NOT
  REPORT WEATHER SUCH AS PRECIPITATION OR FOG.


ILZ005-006-012>014-019>023-191800-
NORTHEAST ILLINOIS
  
CITY           SKY/WX    TMP DP  RH WIND       PRES   REMARKS
CHICAGO-OHARE  PTSUNNY   75  61  61 NE10      30.04S                  
CHICAGO-MIDWAY PTSUNNY   78  60  53 NE8       30.03S                  
AURORA         FAIR      79  65  62 E8        30.03R HX  81           
LANSING*       FAIR      78  63  59 E5        30.02F HX  80           
JOLIET*        FAIR      81  65  58 E5        30.01F HX  83           
WAUKEGAN         N/A     68  60  75 NE10      30.06F                  
DUPAGE AIRPORT FAIR      77  63  61 NE5       30.04R                  
KANKAKEE*      FAIR      83  62  50 E6        30.02F HX  83           
WHEELING       PTSUNNY   73  61  65 NE8       30.06S                  
MORRIS*        FAIR      83  63  51 SE3       30.01S HX  84           
ROMEOVILLE*    FAIR      78  65  63 E7        30.02F HX  80           
NORTHERLY ISL    N/A     71  62  73 N9          N/A                   
$$


SKY/WX - Weather  TMP - Temperature  DP - Dew Point  RH - Relative Humidity
WIND - Wind Direction/Speed PRES - Barometric Pressure